Weather History for Udon Thani, Thailand

Change the Weather History Date:

Saturday, December 21, 2013

  Actual Average (VLVT) Record (VLVT)
Temperature  
Mean Temperature 64 °F -  
Max Temperature 73 °F 85 °F 91 °F (1997)
Min Temperature 55 °F 60 °F 53 °F (1999)
Degree Days  
Heating Degree Days 1    
Growing Degree Days 14 (Base 50)    
Moisture  
Dew Point 46 °F    
Average Humidity 50    
Maximum Humidity 72    
Minimum Humidity 28    
Precipitation  
Precipitation 0.00 in 0.01 in - ()
Sea Level Pressure  
Sea Level Pressure 30.11 in    
Wind  
Wind Speed 3 mph ()    
Max Wind Speed 9 mph    
Max Gust Speed -    
Visibility 3.2 miles    
Events      
Averages and records for this station are not official NWS values.
T = Trace of Precipitation, MM = Missing Value Source: Averaged Metar Reports

Daily Weather History Graph

Daily Weather History Graph

Search for Another Location

Airport:

Trip Planner

Search our weather history database for the weather conditions in past years. The results will help you decide how hot, cold, wet, or windy it might be!

Date:

Astronomy

Dec. 21, 2013 Rise Set
Actual Time 6:34 AM ICT 5:39 PM ICT
Civil Twilight 6:10 AM ICT 6:03 PM ICT
Nautical Twilight 5:43 AM ICT 6:30 PM ICT
Astronomical Twilight 5:16 AM ICT 6:57 PM ICT
Moon 8:58 PM ICT (12/21) 9:07 AM ICT (12/21)
Length of Visible Light 11h 52m
Length of Day
11h 05m
Waning Gibbous, 87% of the Moon is Illuminated
Dec 21
Waning Gibbous
Dec 25
Last Quarter
Jan 1
New
Jan 8
First Quarter
Jan 16
Full

Hourly Weather History & Observations

Time (ICT) Temp. Dew Point Humidity Pressure Visibility Wind Dir Wind Speed Gust Speed Precip Events Conditions
1:00 AM 61 °F 53 °F 67% 30.10 in 3 mi North 2.3 mph - -   Mist
4:00 AM 59 °F 48 °F 59% 30.09 in 3 mi ENE 2.3 mph - -   Mist
6:00 AM 57.2 °F 46.4 °F 67% 30.12 in 2.5 mi Calm Calm - N/A   Mist
7:00 AM 56 °F 48 °F 67% 30.14 in 2 mi East 2.3 mph - -   Mist
7:00 AM 55.4 °F 46.4 °F 72% 30.12 in 2.2 mi Calm Calm - N/A   Mostly Cloudy
8:00 AM 57.2 °F 46.4 °F 67% 30.15 in 2.8 mi NE 3.5 mph - N/A   Mist
9:00 AM 60.8 °F 44.6 °F 55% 30.18 in 3.1 mi ENE 9.2 mph - N/A   Haze
10:00 AM 65 °F 46 °F 38% 30.19 in 4 mi ENE 4.6 mph - -   Haze
10:00 AM 64.4 °F 44.6 °F 49% 30.21 in 3.7 mi East 8.1 mph - N/A   Unknown
11:00 AM 68.0 °F 44.6 °F 43% 30.18 in 5.0 mi East 8.1 mph - N/A   Unknown
12:00 PM 69.8 °F 44.6 °F 40% 30.15 in 4.3 mi East 9.2 mph - N/A   Unknown
1:00 PM 71 °F 46 °F 30% 30.12 in 4 mi NE 4.6 mph - -   Haze
1:00 PM 69.8 °F 42.8 °F 38% 30.12 in 4.3 mi NNE 8.1 mph - N/A   Unknown
2:00 PM 71.6 °F 41.0 °F 33% 30.06 in 4.3 mi Variable 6.9 mph - N/A   Unknown
3:00 PM 73.4 °F 42.8 °F 33% 30.04 in 3.7 mi NE 6.9 mph - N/A   Unknown
4:00 PM 73 °F 47 °F 28% 30.03 in 3 mi NNE 5.8 mph - -   Haze
4:00 PM 71.6 °F 42.8 °F 35% 30.04 in 3.1 mi NE 8.1 mph - N/A   Haze
5:00 PM 69.8 °F 41.0 °F 35% 30.04 in 3.1 mi NE 5.8 mph - N/A   Haze
6:00 PM 66.2 °F 42.8 °F 43% 30.04 in 2.2 mi NNE 2.3 mph - N/A   Haze
7:00 PM 64 °F 52 °F 55% 30.06 in 3 mi Calm Calm - -   Mist
7:00 PM 60.8 °F 46.4 °F 59% 30.06 in 2.5 mi Calm Calm - N/A   Haze
8:00 PM 59.0 °F 48.2 °F 67% 30.06 in 2.5 mi Calm Calm - N/A   Haze
10:00 PM 58 °F 51 °F 72% 30.12 in 3 mi Calm Calm - -   Mist